FW1504 Weather Reports


Display with metric or nautical units.
time (UTC)temp
F
wind
direction
speed
MPH
gust
MPH
rain 1hr
in
rain 24hr
in
rain mn
in
humidity
%
barometer
mb
20260901060033 83 173 0.0 2.0 0.00 0.00 0.00 46 1013.8
20260901054515 84 173 0.0 2.0 0.00 0.00 0.00 45 1013.8
20260901053010 84 178 0.0 3.0 0.00 0.00 0.00 44 1013.7
20260901051508 85 175 0.0 3.0 0.00 0.00 0.00 44 1013.7
20260901050009 85 175 0.0 4.0 0.00 0.00 0.00 42 1013.7
20260901044507 86 162 0.0 3.0 0.00 0.00 0.00 42 1013.7
20260901043003 86 168 0.0 5.0 0.00 0.00 0.00 41 1013.7
20260901041502 87 165 0.0 2.0 0.00 0.00 0.00 41 1013.7
20260901040002 87 162 0.0 2.0 0.00 0.00 0.00 40 1013.6
20260901034502 88 360 0.0 4.0 0.00 0.00 0.00 40 1013.5
20260901033001 88 201 0.0 4.0 0.00 0.00 0.00 40 1013.5
20260901031501 89 360 0.0 5.0 0.00 0.00 0.00 39 1013.2
20260901030107 89 167 2.0 7.0 0.00 0.00 0.00 38 1013.2
20260901024606 89 173 0.0 5.0 0.00 0.00 0.00 38 1012.9
20260901023104 90 164 0.0 4.0 0.00 0.00 0.00 37 1012.7
20260901021558 90 121 0.0 4.0 0.00 0.00 0.00 37 1012.5
20260901020100 90 234 1.0 4.0 0.00 0.00 0.00 36 1012.4
20260901014558 91 173 0.0 3.0 0.00 0.00 0.00 36 1012.0
20260901013101 92 129 0.0 4.0 0.00 0.00 0.00 35 1012.0
20260901011556 93 360 0.0 4.0 0.00 0.00 0.00 34 1011.9
20260901010113 94 360 0.0 4.0 0.00 0.00 0.00 33 1011.8
20260901004556 94 177 1.0 5.0 0.00 0.00 0.00 32 1011.7
20260901003054 95 191 1.0 9.0 0.00 0.00 0.00 31 1011.7
20260901001553 96 169 1.0 11.0 0.00 0.00 0.00 31 1011.7
20260901000054 97 98 1.0 6.0 0.00 0.00 0.00 30 1011.7
20260831234554 98 80 1.0 5.0 0.00 0.00 0.00 28 1011.8
20260831233053 98 192 2.0 5.0 0.00 0.00 0.00 28 1011.5
20260831231552 98 157 2.0 6.0 0.00 0.00 0.00 29 1011.4
20260831230109 98 166 3.0 7.0 0.00 0.00 0.00 29 1011.5
20260831224553 99 149 1.0 8.0 0.00 0.00 0.00 30 1011.6
20260831223102 99 167 4.0 10.0 0.00 0.00 0.00 30 1011.7
20260831221555 99 182 3.0 7.0 0.00 0.00 0.00 29 1011.7
20260831220048 100 116 2.0 7.0 0.00 0.00 0.00 29 1011.8
20260831214555 100 189 2.0 8.0 0.00 0.00 0.00 29 1012.1
20260831213047 101 153 2.0 8.0 0.00 0.00 0.00 29 1012.1
20260831211545 100 153 2.0 8.0 0.00 0.00 0.00 29 1012.2
20260831210044 101 184 1.0 8.0 0.00 0.00 0.00 30 1012.3
20260831204544 100 185 3.0 9.0 0.00 0.00 0.00 30 1012.6
20260831203042 101 198 1.0 8.0 0.00 0.00 0.00 31 1012.6
20260831201538 101 111 2.0 8.0 0.00 0.00 0.00 29 1012.6
20260831200039 100 117 1.0 10.0 0.00 0.00 0.00 31 1013.0
20260831194547 99 82 1.0 8.0 0.00 0.00 0.00 32 1013.1
20260831193037 100 187 2.0 10.0 0.00 0.00 0.00 32 1013.2
20260831191534 100 150 2.0 9.0 0.00 0.00 0.00 32 1013.4
20260831190031 101 169 2.0 9.0 0.00 0.00 0.00 30 1013.4
20260831184530 100 253 0.0 4.0 0.00 0.00 0.00 33 1013.5
20260831183032 100 178 1.0 8.0 0.00 0.00 0.00 33 1013.7
20260831181526 100 155 2.0 5.0 0.00 0.00 0.00 34 1013.9
20260831180022 100 168 2.0 7.0 0.00 0.00 0.00 34 1014.0
20260831174519 99 180 2.0 8.0 0.00 0.00 0.00 35 1014.2
20260831173017 98 123 1.0 5.0 0.00 0.00 0.00 37 1014.3
20260831171516 97 265 1.0 5.0 0.00 0.00 0.00 39 1014.5
20260831170017 97 242 1.0 10.0 0.00 0.00 0.00 40 1014.7
20260831164503 96 155 2.0 8.0 0.00 0.00 0.00 41 1014.8
20260831163102 95 259 1.0 5.0 0.00 0.00 0.00 42 1015.1
20260831161555 95 153 0.0 8.0 0.00 0.00 0.00 44 1015.0
20260831160051 94 227 0.0 5.0 0.00 0.00 0.00 45 1015.1
20260831154547 93 279 1.0 7.0 0.00 0.00 0.00 46 1015.0
20260831153042 92 177 0.0 7.0 0.00 0.00 0.00 48 1014.9
20260831151539 91 125 1.0 6.0 0.00 0.00 0.00 49 1015.0
20260831150034 89 234 0.0 4.0 0.00 0.00 0.00 51 1015.0
20260831144530 88 259 0.0 3.0 0.00 0.00 0.00 52 1015.2
20260831143026 87 189 0.0 3.0 0.00 0.00 0.00 52 1015.1
20260831141521 86 213 0.0 3.0 0.00 0.00 0.00 52 1015.2
20260831140017 84 171 0.0 2.0 0.00 0.00 0.00 54 1015.2
20260831134513 83 174 1.0 3.0 0.00 0.00 0.00 54 1015.2
20260831133024 82 163 0.0 3.0 0.00 0.00 0.00 55 1015.0
20260831131506 80 174 0.0 2.0 0.00 0.00 0.00 58 1014.8
20260831130001 79 161 0.0 1.0 0.00 0.00 0.00 59 1014.5
20260831124608 77 360 0.0 1.0 0.00 0.00 0.00 60 1014.5
20260831123055 77 360 0.0 1.0 0.00 0.00 0.00 60 1014.1
20260831121551 78 360 0.0 2.0 0.00 0.00 0.00 59 1013.9
20260831120054 78 360 0.0 3.0 0.00 0.00 0.00 58 1013.7
20260831120018 78 360 0.0 3.0 0.00 0.00 0.00 58 1013.7
20260831114547 78 360 0.0 3.0 0.00 0.00 0.00 57 1013.3
20260831113047 78 360 0.0 3.0 0.00 0.00 0.00 57 1013.3
20260831111543 78 360 0.0 3.0 0.00 0.00 0.00 57 1013.1
20260831110040 78 360 0.0 2.0 0.00 0.00 0.00 56 1013.0
20260831104548 79 360 0.0 4.0 0.00 0.00 0.00 55 1012.9
20260831103036 79 360 0.0 3.0 0.00 0.00 0.00 55 1012.8
20260831101536 79 360 0.0 4.0 0.00 0.00 0.00 55 1012.8
20260831100040 79 360 0.0 3.0 0.00 0.00 0.00 55 1012.5
20260831094539 79 360 0.0 3.0 0.00 0.00 0.00 55 1012.5
20260831093034 80 360 0.0 3.0 0.00 0.00 0.00 54 1012.5
20260831091528 80 360 0.0 3.0 0.00 0.00 0.00 53 1012.3
20260831090025 81 360 0.0 3.0 0.00 0.00 0.00 52 1012.3
20260831084536 81 360 0.0 4.0 0.00 0.00 0.00 51 1012.1
20260831083036 82 360 0.0 5.0 0.00 0.00 0.00 50 1012.1
20260831081519 83 360 1.0 6.0 0.00 0.00 0.00 49 1012.2
20260831080026 83 360 1.0 9.0 0.00 0.00 0.00 49 1012.2
20260831074517 83 360 1.0 5.0 0.00 0.00 0.00 48 1012.0
20260831073019 83 360 1.0 8.0 0.00 0.00 0.00 48 1012.0
20260831071513 83 360 1.0 8.0 0.00 0.00 0.00 47 1012.0
20260831070016 84 360 1.0 5.0 0.00 0.00 0.00 47 1012.0
20260831064510 84 360 1.0 6.0 0.00 0.00 0.00 46 1012.1
20260831063007 85 360 0.0 5.0 0.00 0.00 0.00 45 1012.1
20260831061506 85 360 1.0 6.0 0.00 0.00 0.00 44 1012.1